CHH7629 ZSWZ-ZGSD

Flight info

Callsign CHH7629
Flight time 1h 44m
Altitude 25600
Route RUPOX B221 LJG A470 BEBEM R200 ZUH
Aircraft B738/M-SDE2E3FGHIRWXY/LB1

Departure

Time 2026-04-25 02:48
Airport Wenzhou Longwan International Airport (ZSWZ)

Arrival

Time 2026-04-25 04:33
Airport Zhuhai Jinwan Airport (ZGSD)
Time Latitude Longitude Altitude Speed Heading
2026-04-25 01:23 27.90537 120.84392 14 ft 0 kts 28°
2026-04-25 02:41 27.90537 120.84393 22 ft 0 kts 28°
2026-04-25 02:41 27.90536 120.84392 23 ft 3 kts 28°
2026-04-25 02:41 27.90512 120.84377 17 ft 4 kts 28°
2026-04-25 02:41 27.90488 120.84363 17 ft 4 kts 26°
2026-04-25 02:42 27.90474 120.84352 18 ft 2 kts 60°
2026-04-25 02:42 27.90470 120.84335 20 ft 2 kts 100°
2026-04-25 02:42 27.90473 120.84323 19 ft 2 kts 113°
2026-04-25 02:42 27.90475 120.84318 19 ft 0 kts 117°
2026-04-25 02:43 27.90474 120.84319 19 ft 0 kts 117°
2026-04-25 02:44 27.90471 120.84327 19 ft 2 kts 117°
2026-04-25 02:44 27.90459 120.84352 17 ft 5 kts 118°
2026-04-25 02:44 27.90435 120.84403 16 ft 9 kts 118°
2026-04-25 02:44 27.90397 120.84481 19 ft 13 kts 118°
2026-04-25 02:45 27.90344 120.84517 15 ft 10 kts 200°
2026-04-25 02:45 27.90272 120.84475 16 ft 14 kts 208°
2026-04-25 02:45 27.90178 120.84417 16 ft 17 kts 208°
2026-04-25 02:45 27.90093 120.84395 16 ft 11 kts 144°
2026-04-25 02:46 27.90045 120.84426 16 ft 9 kts 191°
2026-04-25 02:46 27.89979 120.84389 16 ft 12 kts 208°
2026-04-25 02:46 27.89892 120.84336 16 ft 16 kts 208°
2026-04-25 02:46 27.89784 120.84271 17 ft 19 kts 208°
2026-04-25 02:47 27.89682 120.84254 16 ft 15 kts 130°
2026-04-25 02:47 27.89629 120.84364 17 ft 18 kts 118°
2026-04-25 02:47 27.89615 120.84469 16 ft 13 kts 51°
2026-04-25 02:47 27.89715 120.84533 16 ft 30 kts 28°
2026-04-25 02:48 27.90110 120.84771 17 ft 97 kts 28°
2026-04-25 02:48 27.90875 120.85235 16 ft 149 kts 28°
2026-04-25 02:48 27.91881 120.85858 276 ft 169 kts 28°
2026-04-25 02:48 27.92896 120.86453 1039 ft 164 kts 28°
2026-04-25 02:49 27.93907 120.87057 1698 ft 164 kts 28°
2026-04-25 02:49 27.94921 120.87666 2336 ft 166 kts 28°
2026-04-25 02:49 27.95940 120.88280 2970 ft 166 kts 28°
2026-04-25 02:49 27.96990 120.88910 3463 ft 182 kts 28°
2026-04-25 02:50 27.98179 120.89626 3690 ft 207 kts 28°
2026-04-25 02:50 27.99495 120.90417 3987 ft 219 kts 28°
2026-04-25 02:50 28.00864 120.91241 4432 ft 225 kts 27°
2026-04-25 02:50 28.02299 120.91965 4974 ft 228 kts 10°
2026-04-25 02:51 28.03861 120.91826 5590 ft 228 kts 336°
2026-04-25 02:51 28.05084 120.90741 6357 ft 224 kts 306°
2026-04-25 02:51 28.05903 120.89239 7085 ft 225 kts 297°
2026-04-25 02:51 28.06634 120.87668 7812 ft 226 kts 296°
2026-04-25 02:52 28.07357 120.86078 8544 ft 228 kts 291°
2026-04-25 02:52 28.07606 120.84327 9280 ft 229 kts 262°
2026-04-25 02:52 28.07048 120.82628 9851 ft 241 kts 236°
2026-04-25 02:52 28.05716 120.81312 10080 ft 270 kts 214°
2026-04-25 02:53 28.03994 120.80226 10278 ft 297 kts 210°
2026-04-25 02:53 28.02072 120.79119 10461 ft 322 kts 209°
2026-04-25 02:53 28.00043 120.77946 10731 ft 340 kts 210°
2026-04-25 02:53 27.97925 120.76695 11319 ft 345 kts 210°
2026-04-25 02:54 27.95797 120.75423 12095 ft 347 kts 210°
2026-04-25 02:54 27.93663 120.74141 12865 ft 348 kts 210°
2026-04-25 02:54 27.91518 120.72858 13629 ft 350 kts 210°
2026-04-25 02:54 27.89356 120.71566 14359 ft 352 kts 210°
2026-04-25 02:55 27.87175 120.70264 15085 ft 354 kts 211°
2026-04-25 02:55 27.84983 120.68956 15885 ft 356 kts 211°
2026-04-25 02:55 27.82791 120.67647 16652 ft 357 kts 211°
2026-04-25 02:55 27.80585 120.66330 17323 ft 361 kts 211°
2026-04-25 02:56 27.78355 120.65000 18075 ft 362 kts 211°
2026-04-25 02:56 27.76125 120.63671 18773 ft 363 kts 212°
2026-04-25 02:56 27.73907 120.62300 19405 ft 364 kts 214°
2026-04-25 02:56 27.71748 120.60801 20042 ft 364 kts 217°
2026-04-25 02:57 27.70337 120.59780 20477 ft 364 kts 217°
2026-04-25 02:57 27.67486 120.57695 21303 ft 366 kts 218°
2026-04-25 02:57 27.65371 120.56154 21874 ft 368 kts 218°
2026-04-25 02:57 27.63213 120.54593 22464 ft 369 kts 218°
2026-04-25 02:58 27.61039 120.53029 23015 ft 371 kts 218°
2026-04-25 02:58 27.59560 120.51970 23376 ft 373 kts 218°
2026-04-25 02:58 27.56644 120.49886 24017 ft 375 kts 218°
2026-04-25 02:58 27.54435 120.48310 24473 ft 377 kts 218°
2026-04-25 02:59 27.52960 120.47259 24760 ft 378 kts 218°
2026-04-25 02:59 27.50737 120.45676 25196 ft 379 kts 218°
2026-04-25 02:59 27.48501 120.44083 25545 ft 379 kts 219°
2026-04-25 02:59 27.46285 120.42509 25555 ft 376 kts 219°
2026-04-25 03:00 27.44065 120.40928 25585 ft 379 kts 219°
2026-04-25 03:00 27.41829 120.39337 25574 ft 380 kts 219°
2026-04-25 03:00 27.39595 120.37749 25580 ft 379 kts 219°
2026-04-25 03:00 27.37362 120.36164 25577 ft 379 kts 219°
2026-04-25 03:01 27.35159 120.34604 25580 ft 379 kts 219°
2026-04-25 03:01 27.32923 120.33027 25584 ft 379 kts 219°
2026-04-25 03:01 27.30694 120.31457 25588 ft 379 kts 219°
2026-04-25 03:01 27.28456 120.29882 25585 ft 379 kts 219°
2026-04-25 03:02 27.26217 120.28306 25579 ft 380 kts 219°
2026-04-25 03:02 27.23973 120.26727 25577 ft 380 kts 219°
2026-04-25 03:02 27.21731 120.25150 25580 ft 379 kts 219°
2026-04-25 03:02 27.19522 120.23596 25573 ft 380 kts 219°
2026-04-25 03:03 27.17282 120.22020 25570 ft 380 kts 219°
2026-04-25 03:03 27.15046 120.20449 25575 ft 379 kts 219°
2026-04-25 03:03 27.12814 120.18882 25567 ft 378 kts 219°
2026-04-25 03:03 27.10594 120.17311 25589 ft 376 kts 219°
2026-04-25 03:04 27.08387 120.15738 25597 ft 376 kts 219°
2026-04-25 03:04 27.06169 120.14151 25583 ft 378 kts 219°
2026-04-25 03:04 27.03949 120.12564 25582 ft 380 kts 219°
2026-04-25 03:05 26.99473 120.09371 25585 ft 382 kts 219°
2026-04-25 03:05 26.97227 120.07771 25580 ft 382 kts 219°
2026-04-25 03:05 26.94981 120.06174 25583 ft 382 kts 219°
2026-04-25 03:05 26.92769 120.04600 25579 ft 382 kts 219°
2026-04-25 03:06 26.90525 120.03003 25585 ft 382 kts 219°
2026-04-25 03:06 26.88281 120.01409 25576 ft 382 kts 219°
2026-04-25 03:06 26.86041 119.99819 25570 ft 381 kts 219°
2026-04-25 03:06 26.83798 119.98233 25585 ft 380 kts 219°
2026-04-25 03:07 26.81559 119.96655 25558 ft 381 kts 219°
2026-04-25 03:07 26.79307 119.95069 25630 ft 382 kts 219°
2026-04-25 03:07 26.77059 119.93485 25707 ft 383 kts 219°
2026-04-25 03:07 26.74805 119.91899 25731 ft 381 kts 219°
2026-04-25 03:08 26.72561 119.90320 25734 ft 381 kts 219°
2026-04-25 03:08 26.70312 119.88738 25746 ft 381 kts 219°
2026-04-25 03:08 26.68069 119.87159 25738 ft 381 kts 219°
2026-04-25 03:08 26.65828 119.85580 25746 ft 389 kts 219°
2026-04-25 03:09 26.63520 119.83954 25743 ft 394 kts 219°
2026-04-25 03:09 26.61206 119.82331 25736 ft 390 kts 219°
2026-04-25 03:09 26.58911 119.80723 25734 ft 389 kts 219°
2026-04-25 03:09 26.56616 119.79114 25742 ft 389 kts 219°
2026-04-25 03:10 26.54326 119.77507 25743 ft 389 kts 219°
2026-04-25 03:10 26.52033 119.75899 25729 ft 389 kts 219°
2026-04-25 03:10 26.49735 119.74288 25748 ft 390 kts 219°
2026-04-25 03:10 26.47422 119.72667 25754 ft 392 kts 219°
2026-04-25 03:11 26.45116 119.71048 25747 ft 393 kts 219°
2026-04-25 03:11 26.42796 119.69416 25739 ft 394 kts 219°
2026-04-25 03:11 26.40478 119.67783 25738 ft 394 kts 219°
2026-04-25 03:11 26.38158 119.66151 25741 ft 393 kts 219°
2026-04-25 03:12 26.35842 119.64522 25740 ft 393 kts 219°
2026-04-25 03:12 26.33552 119.62912 25747 ft 393 kts 219°
2026-04-25 03:12 26.31234 119.61283 25754 ft 394 kts 219°
2026-04-25 03:12 26.28918 119.59655 25740 ft 394 kts 219°
2026-04-25 03:13 26.26599 119.58027 25744 ft 394 kts 219°
2026-04-25 03:13 26.24291 119.56408 25752 ft 394 kts 219°
2026-04-25 03:13 26.21883 119.54911 25742 ft 400 kts 212°
2026-04-25 03:13 26.19267 119.53786 25745 ft 407 kts 205°
2026-04-25 03:14 26.16544 119.52875 25745 ft 408 kts 205°
2026-04-25 03:14 26.13829 119.51975 25749 ft 408 kts 205°
2026-04-25 03:14 26.11102 119.51068 25749 ft 408 kts 205°
2026-04-25 03:14 26.08385 119.50157 25752 ft 408 kts 205°
2026-04-25 03:15 26.05672 119.49240 25752 ft 408 kts 205°
2026-04-25 03:15 26.02947 119.48316 25749 ft 409 kts 205°
2026-04-25 03:15 26.00220 119.47390 25744 ft 409 kts 205°
2026-04-25 03:15 25.97496 119.46464 25754 ft 410 kts 205°
2026-04-25 03:16 25.94760 119.45535 25748 ft 410 kts 205°
2026-04-25 03:16 25.92031 119.44608 25729 ft 410 kts 205°
2026-04-25 03:16 25.89327 119.43691 25740 ft 410 kts 205°
2026-04-25 03:16 25.86599 119.42766 25748 ft 410 kts 205°
2026-04-25 03:17 25.83872 119.41842 25739 ft 411 kts 205°
2026-04-25 03:17 25.81138 119.40916 25749 ft 412 kts 205°
2026-04-25 03:17 25.78392 119.39980 25735 ft 412 kts 206°
2026-04-25 03:17 25.75786 119.38747 25737 ft 403 kts 215°
2026-04-25 03:18 25.73404 119.37139 25739 ft 398 kts 220°
2026-04-25 03:18 25.71235 119.35268 25730 ft 393 kts 228°
2026-04-25 03:18 25.69330 119.33108 25736 ft 391 kts 231°
2026-04-25 03:18 25.67476 119.30907 25735 ft 391 kts 232°
2026-04-25 03:19 25.65624 119.28698 25734 ft 391 kts 232°
2026-04-25 03:19 25.63766 119.26487 25726 ft 392 kts 231°
2026-04-25 03:19 25.61906 119.24282 25728 ft 392 kts 231°
2026-04-25 03:19 25.60040 119.22079 25730 ft 392 kts 231°
2026-04-25 03:20 25.58170 119.19877 25730 ft 392 kts 231°
2026-04-25 03:20 25.56321 119.17703 25724 ft 393 kts 231°
2026-04-25 03:20 25.54447 119.15504 25722 ft 392 kts 231°
2026-04-25 03:20 25.52576 119.13309 25717 ft 392 kts 231°
2026-04-25 03:21 25.50700 119.11111 25730 ft 392 kts 231°
2026-04-25 03:21 25.48829 119.08917 25717 ft 392 kts 231°
2026-04-25 03:21 25.46955 119.06721 25719 ft 392 kts 231°
2026-04-25 03:21 25.45080 119.04525 25727 ft 392 kts 231°
2026-04-25 03:22 25.43208 119.02333 25728 ft 392 kts 231°
2026-04-25 03:22 25.41333 119.00140 25730 ft 392 kts 231°
2026-04-25 03:22 25.39456 118.97944 25722 ft 393 kts 231°
2026-04-25 03:22 25.37577 118.95747 25726 ft 393 kts 231°
2026-04-25 03:23 25.35690 118.93543 25723 ft 394 kts 231°
2026-04-25 03:23 25.33823 118.91360 25732 ft 395 kts 231°
2026-04-25 03:23 25.31955 118.89131 25717 ft 395 kts 232°
2026-04-25 03:23 25.30099 118.86886 25716 ft 396 kts 232°
2026-04-25 03:24 25.28255 118.84648 25718 ft 396 kts 232°
2026-04-25 03:24 25.26398 118.82398 25722 ft 396 kts 232°
2026-04-25 03:24 25.24539 118.80148 25713 ft 396 kts 232°
2026-04-25 03:24 25.22677 118.77901 25726 ft 396 kts 232°
2026-04-25 03:25 25.20808 118.75647 25722 ft 397 kts 232°
2026-04-25 03:25 25.18942 118.73399 25703 ft 397 kts 232°
2026-04-25 03:25 25.17105 118.71188 25714 ft 396 kts 232°
2026-04-25 03:25 25.15267 118.68977 25721 ft 395 kts 232°
2026-04-25 03:26 25.13411 118.66744 25721 ft 395 kts 232°
2026-04-25 03:26 25.11553 118.64509 25708 ft 394 kts 231°
2026-04-25 03:26 25.09700 118.62284 25724 ft 394 kts 232°
2026-04-25 03:26 25.07823 118.60064 25724 ft 396 kts 231°
2026-04-25 03:27 25.05913 118.57865 25716 ft 398 kts 230°
2026-04-25 03:27 25.03990 118.55672 25725 ft 398 kts 230°
2026-04-25 03:27 25.02055 118.53471 25716 ft 399 kts 230°
2026-04-25 03:27 25.00122 118.51269 25716 ft 400 kts 230°
2026-04-25 03:28 24.98188 118.49062 25717 ft 401 kts 230°
2026-04-25 03:28 24.96252 118.46850 25708 ft 401 kts 230°
2026-04-25 03:28 24.94340 118.44665 25713 ft 400 kts 230°
2026-04-25 03:28 24.92410 118.42458 25719 ft 400 kts 230°
2026-04-25 03:29 24.90479 118.40252 25715 ft 400 kts 230°
2026-04-25 03:29 24.88548 118.38045 25720 ft 400 kts 230°
2026-04-25 03:29 24.86620 118.35842 25727 ft 400 kts 230°
2026-04-25 03:29 24.84862 118.33834 25719 ft 401 kts 230°
2026-04-25 03:30 24.82926 118.31626 25712 ft 401 kts 230°
2026-04-25 03:30 24.81006 118.29437 25713 ft 402 kts 230°
2026-04-25 03:30 24.79062 118.27221 25711 ft 401 kts 230°
2026-04-25 03:30 24.77122 118.25010 25702 ft 401 kts 230°
2026-04-25 03:31 24.75185 118.22803 25708 ft 401 kts 230°
2026-04-25 03:31 24.73248 118.20598 25710 ft 401 kts 230°
2026-04-25 03:31 24.71304 118.18386 25709 ft 401 kts 230°
2026-04-25 03:31 24.69358 118.16172 25707 ft 401 kts 230°
2026-04-25 03:32 24.67426 118.13968 25705 ft 401 kts 230°
2026-04-25 03:32 24.65513 118.11784 25702 ft 401 kts 230°
2026-04-25 03:32 24.63572 118.09567 25700 ft 402 kts 230°
2026-04-25 03:32 24.61634 118.07355 25701 ft 402 kts 230°
2026-04-25 03:33 24.59689 118.05135 25704 ft 403 kts 230°
2026-04-25 03:33 24.57740 118.02915 25703 ft 403 kts 230°
2026-04-25 03:33 24.55793 118.00686 25706 ft 403 kts 231°
2026-04-25 03:33 24.53888 117.98421 25709 ft 403 kts 231°
2026-04-25 03:34 24.52023 117.96159 25700 ft 404 kts 232°
2026-04-25 03:34 24.50143 117.93866 25696 ft 404 kts 232°
2026-04-25 03:34 24.48260 117.91572 25712 ft 404 kts 232°
2026-04-25 03:34 24.46379 117.89287 25701 ft 404 kts 231°
2026-04-25 03:35 24.44491 117.87001 25720 ft 404 kts 231°
2026-04-25 03:35 24.42601 117.84717 25714 ft 405 kts 231°
2026-04-25 03:35 24.40707 117.82433 25711 ft 405 kts 231°
2026-04-25 03:35 24.38807 117.80143 25705 ft 405 kts 231°
2026-04-25 03:36 24.36911 117.77859 25715 ft 405 kts 231°
2026-04-25 03:36 24.35014 117.75575 25716 ft 405 kts 231°
2026-04-25 03:36 24.33115 117.73289 25716 ft 405 kts 231°
2026-04-25 03:36 24.31221 117.71011 25722 ft 405 kts 231°
2026-04-25 03:37 24.29345 117.68755 25724 ft 405 kts 231°
2026-04-25 03:37 24.27444 117.66471 25713 ft 406 kts 231°
2026-04-25 03:37 24.25542 117.64185 25721 ft 406 kts 231°
2026-04-25 03:37 24.23640 117.61902 25714 ft 406 kts 231°
2026-04-25 03:38 24.21734 117.59614 25729 ft 407 kts 231°
2026-04-25 03:38 24.19817 117.57313 25701 ft 408 kts 231°
2026-04-25 03:38 24.17902 117.55016 25704 ft 408 kts 231°
2026-04-25 03:38 24.15986 117.52721 25716 ft 408 kts 231°
2026-04-25 03:39 24.14071 117.50433 25714 ft 408 kts 230°
2026-04-25 03:39 24.12019 117.48276 25720 ft 410 kts 226°
2026-04-25 03:39 24.09891 117.46189 25703 ft 411 kts 225°
2026-04-25 03:39 24.07756 117.44118 25715 ft 410 kts 225°
2026-04-25 03:40 24.05616 117.42043 25707 ft 411 kts 225°
2026-04-25 03:40 24.03479 117.39965 25706 ft 411 kts 226°
2026-04-25 03:40 24.01372 117.37909 25710 ft 411 kts 226°
2026-04-25 03:40 23.99245 117.35829 25703 ft 411 kts 226°
2026-04-25 03:41 23.97084 117.33715 25703 ft 411 kts 226°
2026-04-25 03:41 23.94976 117.31651 25704 ft 411 kts 226°
2026-04-25 03:41 23.92835 117.29556 25706 ft 412 kts 226°
2026-04-25 03:41 23.90692 117.27459 25707 ft 412 kts 226°
2026-04-25 03:42 23.88547 117.25362 25699 ft 413 kts 226°
2026-04-25 03:42 23.86408 117.23272 25674 ft 412 kts 226°
2026-04-25 03:42 23.84270 117.21184 25707 ft 411 kts 226°
2026-04-25 03:42 23.82138 117.19103 25687 ft 411 kts 226°
2026-04-25 03:43 23.80004 117.17019 25701 ft 412 kts 226°
2026-04-25 03:43 23.77862 117.14930 25696 ft 413 kts 226°
2026-04-25 03:43 23.75751 117.12801 25696 ft 413 kts 229°
2026-04-25 03:43 23.73768 117.10589 25699 ft 413 kts 230°
2026-04-25 03:44 23.71788 117.08321 25694 ft 413 kts 230°
2026-04-25 03:44 23.69787 117.06014 25695 ft 414 kts 230°
2026-04-25 03:44 23.67832 117.03765 25687 ft 414 kts 230°
2026-04-25 03:44 23.66489 117.02226 25687 ft 414 kts 230°
2026-04-25 03:45 23.63853 116.99216 25684 ft 414 kts 230°
2026-04-25 03:45 23.61862 116.96952 25689 ft 414 kts 230°
2026-04-25 03:45 23.59871 116.94690 25684 ft 413 kts 230°
2026-04-25 03:45 23.58524 116.93161 25685 ft 413 kts 230°
2026-04-25 03:46 23.56532 116.90901 25686 ft 413 kts 230°
2026-04-25 03:46 23.54570 116.88676 25686 ft 413 kts 230°
2026-04-25 03:46 23.52581 116.86421 25689 ft 413 kts 230°
2026-04-25 03:46 23.50585 116.84159 25688 ft 413 kts 230°
2026-04-25 03:47 23.48600 116.81909 25688 ft 413 kts 230°
2026-04-25 03:47 23.46603 116.79648 25689 ft 413 kts 230°
2026-04-25 03:47 23.44599 116.77387 25690 ft 414 kts 229°
2026-04-25 03:47 23.42428 116.75301 25689 ft 418 kts 221°
2026-04-25 03:48 23.40111 116.73379 25693 ft 418 kts 221°
2026-04-25 03:48 23.37811 116.71495 25692 ft 419 kts 221°
2026-04-25 03:48 23.35483 116.69587 25690 ft 419 kts 221°
2026-04-25 03:48 23.33155 116.67672 25688 ft 419 kts 221°
2026-04-25 03:49 23.30831 116.65753 25689 ft 420 kts 221°
2026-04-25 03:49 23.28504 116.63826 25689 ft 420 kts 221°
2026-04-25 03:49 23.26181 116.61900 25687 ft 420 kts 221°
2026-04-25 03:49 23.23858 116.59973 25686 ft 420 kts 221°
2026-04-25 03:50 23.21534 116.58045 25686 ft 420 kts 221°
2026-04-25 03:50 23.19210 116.56119 25682 ft 420 kts 221°
2026-04-25 03:50 23.16878 116.54187 25682 ft 420 kts 221°
2026-04-25 03:50 23.14556 116.52263 25681 ft 420 kts 221°
2026-04-25 03:51 23.12226 116.50335 25675 ft 420 kts 221°
2026-04-25 03:51 23.09896 116.48407 25678 ft 420 kts 221°
2026-04-25 03:51 23.07565 116.46479 25683 ft 420 kts 221°
2026-04-25 03:51 23.05265 116.44577 25677 ft 421 kts 221°
2026-04-25 03:52 23.02935 116.42651 25677 ft 421 kts 221°
2026-04-25 03:52 23.00605 116.40727 25679 ft 421 kts 221°
2026-04-25 03:52 22.98291 116.38784 25680 ft 419 kts 225°
2026-04-25 03:52 22.96404 116.36422 25681 ft 413 kts 239°
2026-04-25 03:53 22.95081 116.33671 25684 ft 410 kts 250°
2026-04-25 03:53 22.94330 116.30696 25674 ft 409 kts 262°
2026-04-25 03:53 22.94007 116.27630 25682 ft 409 kts 264°
2026-04-25 03:53 22.93732 116.24556 25673 ft 409 kts 264°
2026-04-25 03:54 22.93457 116.21481 25674 ft 409 kts 264°
2026-04-25 03:54 22.93167 116.18410 25677 ft 410 kts 264°
2026-04-25 03:54 22.92861 116.15328 25674 ft 410 kts 264°
2026-04-25 03:54 22.92546 116.12253 25672 ft 410 kts 264°
2026-04-25 03:55 22.92230 116.09209 25673 ft 410 kts 264°
2026-04-25 03:55 22.91910 116.06135 25673 ft 411 kts 264°
2026-04-25 03:55 22.91588 116.03053 25674 ft 411 kts 264°
2026-04-25 03:55 22.91273 115.99978 25674 ft 411 kts 264°
2026-04-25 03:56 22.90966 115.96900 25673 ft 411 kts 264°
2026-04-25 03:56 22.90661 115.93816 25676 ft 411 kts 264°
2026-04-25 03:56 22.90354 115.90737 25676 ft 411 kts 264°
2026-04-25 03:56 22.90046 115.87664 25676 ft 411 kts 264°
2026-04-25 03:57 22.89736 115.84581 25681 ft 411 kts 264°
2026-04-25 03:57 22.89427 115.81504 25673 ft 411 kts 264°
2026-04-25 03:57 22.89116 115.78418 25674 ft 411 kts 264°
2026-04-25 03:57 22.88806 115.75344 25673 ft 411 kts 264°
2026-04-25 03:58 22.88494 115.72262 25676 ft 411 kts 264°
2026-04-25 03:58 22.88182 115.69178 25670 ft 411 kts 264°
2026-04-25 03:58 22.87870 115.66094 25666 ft 411 kts 264°
2026-04-25 03:58 22.87556 115.63006 25674 ft 411 kts 264°
2026-04-25 03:59 22.87243 115.59927 25673 ft 411 kts 264°
2026-04-25 03:59 22.86928 115.56841 25675 ft 411 kts 264°
2026-04-25 03:59 22.86613 115.53765 25674 ft 412 kts 264°
2026-04-25 03:59 22.86297 115.50675 25676 ft 412 kts 264°
2026-04-25 04:00 22.85980 115.47580 25676 ft 412 kts 264°
2026-04-25 04:00 22.85663 115.44499 25675 ft 412 kts 264°
2026-04-25 04:00 22.85345 115.41405 25677 ft 412 kts 264°
2026-04-25 04:00 22.85026 115.38315 25679 ft 412 kts 264°
2026-04-25 04:01 22.84707 115.35233 25677 ft 412 kts 264°
2026-04-25 04:01 22.84387 115.32137 25676 ft 412 kts 264°
2026-04-25 04:01 22.84070 115.29082 25682 ft 413 kts 264°
2026-04-25 04:01 22.83748 115.25990 25677 ft 413 kts 264°
2026-04-25 04:02 22.83427 115.22905 25671 ft 413 kts 264°
2026-04-25 04:02 22.83103 115.19804 25671 ft 413 kts 264°
2026-04-25 04:02 22.82780 115.16714 25676 ft 413 kts 264°
2026-04-25 04:02 22.82456 115.13620 25678 ft 413 kts 264°
2026-04-25 04:03 22.82132 115.10530 25676 ft 413 kts 263°
2026-04-25 04:03 22.81808 115.07443 25676 ft 412 kts 264°
2026-04-25 04:03 22.81482 115.04353 25671 ft 413 kts 264°
2026-04-25 04:03 22.81156 115.01258 25684 ft 412 kts 264°
2026-04-25 04:04 22.80829 114.98166 25681 ft 413 kts 264°
2026-04-25 04:04 22.80501 114.95075 25685 ft 413 kts 264°
2026-04-25 04:04 22.80178 114.92028 25667 ft 398 kts 264°
2026-04-25 04:04 22.79867 114.89108 25663 ft 383 kts 264°
2026-04-25 04:05 22.79565 114.86272 25674 ft 382 kts 264°
2026-04-25 04:05 22.79260 114.83409 25684 ft 381 kts 264°
2026-04-25 04:05 22.78955 114.80548 25393 ft 383 kts 264°
2026-04-25 04:05 22.78651 114.77709 25019 ft 377 kts 263°
2026-04-25 04:06 22.78349 114.74895 24566 ft 374 kts 264°
2026-04-25 04:06 22.78059 114.72098 24115 ft 371 kts 264°
2026-04-25 04:06 22.77778 114.69329 23646 ft 369 kts 264°
2026-04-25 04:06 22.77499 114.66563 23096 ft 367 kts 264°
2026-04-25 04:07 22.77222 114.63826 22585 ft 364 kts 264°
2026-04-25 04:07 22.76946 114.61107 22105 ft 362 kts 264°
2026-04-25 04:07 22.76670 114.58408 21627 ft 359 kts 264°
2026-04-25 04:07 22.76396 114.55731 21160 ft 356 kts 264°
2026-04-25 04:08 22.76123 114.53074 20700 ft 354 kts 264°
2026-04-25 04:08 22.75852 114.50426 20246 ft 352 kts 264°
2026-04-25 04:08 22.75584 114.47801 19787 ft 350 kts 264°
2026-04-25 04:08 22.75316 114.45185 19347 ft 348 kts 265°
2026-04-25 04:09 22.75135 114.43410 19029 ft 347 kts 265°
2026-04-25 04:09 22.74869 114.40809 18567 ft 346 kts 265°
2026-04-25 04:09 22.74606 114.38250 18077 ft 345 kts 265°
2026-04-25 04:09 22.74341 114.35668 17595 ft 343 kts 265°
2026-04-25 04:10 22.74077 114.33099 17125 ft 341 kts 265°
2026-04-25 04:10 22.73815 114.30554 16676 ft 339 kts 264°
2026-04-25 04:10 22.73554 114.28024 16239 ft 337 kts 264°
2026-04-25 04:10 22.73294 114.25514 15800 ft 335 kts 264°
2026-04-25 04:11 22.72778 114.20527 14953 ft 332 kts 264°
2026-04-25 04:11 22.72520 114.18045 14509 ft 331 kts 264°
2026-04-25 04:11 22.72262 114.15564 14060 ft 331 kts 264°
2026-04-25 04:12 22.72005 114.13091 13589 ft 331 kts 264°
2026-04-25 04:12 22.71751 114.10652 13136 ft 329 kts 264°
2026-04-25 04:12 22.71494 114.08190 12694 ft 327 kts 264°
2026-04-25 04:12 22.71238 114.05748 12270 ft 325 kts 264°
2026-04-25 04:13 22.70899 114.03333 11867 ft 323 kts 256°
2026-04-25 04:13 22.70159 114.01056 11699 ft 317 kts 249°
2026-04-25 04:13 22.69314 113.98855 11514 ft 318 kts 248°
2026-04-25 04:13 22.68451 113.96633 11333 ft 322 kts 248°
2026-04-25 04:14 22.67580 113.94375 11142 ft 324 kts 248°
2026-04-25 04:14 22.66717 113.92124 10949 ft 322 kts 248°
2026-04-25 04:14 22.65877 113.89915 10763 ft 319 kts 249°
2026-04-25 04:14 22.65045 113.87722 10580 ft 310 kts 249°
2026-04-25 04:15 22.64238 113.85593 10403 ft 302 kts 249°
2026-04-25 04:15 22.63450 113.83512 10184 ft 296 kts 249°
2026-04-25 04:15 22.62677 113.81475 10000 ft 289 kts 249°
2026-04-25 04:15 22.61934 113.79507 9975 ft 276 kts 249°
2026-04-25 04:16 22.61217 113.77597 9692 ft 273 kts 249°
2026-04-25 04:16 22.60511 113.75711 9519 ft 267 kts 249°
2026-04-25 04:16 22.59813 113.73851 9363 ft 266 kts 249°
2026-04-25 04:16 22.59118 113.71996 9207 ft 266 kts 249°
2026-04-25 04:17 22.58426 113.70152 9050 ft 267 kts 249°
2026-04-25 04:17 22.57726 113.68289 8897 ft 268 kts 249°
2026-04-25 04:17 22.57024 113.66421 8743 ft 269 kts 249°
2026-04-25 04:17 22.56325 113.64561 8590 ft 269 kts 249°
2026-04-25 04:18 22.55618 113.62680 8440 ft 270 kts 249°
2026-04-25 04:18 22.54909 113.60795 8284 ft 271 kts 249°
2026-04-25 04:18 22.54200 113.58914 8130 ft 269 kts 248°
2026-04-25 04:18 22.53494 113.57042 7968 ft 266 kts 248°
2026-04-25 04:19 22.52758 113.55224 7849 ft 262 kts 244°
2026-04-25 04:19 22.51714 113.53625 7725 ft 263 kts 223°
2026-04-25 04:19 22.50235 113.52465 7643 ft 263 kts 214°
2026-04-25 04:19 22.48690 113.51410 7538 ft 263 kts 213°
2026-04-25 04:20 22.47128 113.50364 7435 ft 264 kts 213°
2026-04-25 04:20 22.45583 113.49329 7333 ft 265 kts 213°
2026-04-25 04:20 22.44013 113.48272 7220 ft 265 kts 213°
2026-04-25 04:20 22.42449 113.47216 7125 ft 265 kts 213°
2026-04-25 04:21 22.40881 113.46154 7019 ft 266 kts 213°
2026-04-25 04:21 22.35705 113.42635 6689 ft 267 kts 213°
2026-04-25 04:21 22.29423 113.38354 6263 ft 267 kts 213°
2026-04-25 04:21 22.23145 113.34075 5816 ft 268 kts 213°
2026-04-25 04:22 22.16868 113.29801 5351 ft 262 kts 213°
2026-04-25 04:22 22.10828 113.25695 4962 ft 253 kts 213°
2026-04-25 04:22 22.06121 113.22495 4807 ft 240 kts 213°
2026-04-25 04:22 22.04726 113.21547 4842 ft 232 kts 213°
2026-04-25 04:23 22.03398 113.20646 4857 ft 219 kts 213°
2026-04-25 04:23 22.02128 113.19784 4893 ft 214 kts 213°
2026-04-25 04:23 22.00870 113.18930 4795 ft 218 kts 213°
2026-04-25 04:23 21.99580 113.18054 4710 ft 221 kts 213°
2026-04-25 04:24 21.98270 113.17164 4606 ft 223 kts 213°
2026-04-25 04:24 21.96959 113.16275 4512 ft 221 kts 213°
2026-04-25 04:24 21.95657 113.15392 4409 ft 221 kts 213°
2026-04-25 04:24 21.94355 113.14509 4290 ft 220 kts 212°
2026-04-25 04:25 21.93070 113.13639 4177 ft 216 kts 212°
2026-04-25 04:25 21.91805 113.12782 4034 ft 215 kts 212°
2026-04-25 04:25 21.90524 113.11941 3885 ft 216 kts 205°
2026-04-25 04:25 21.89050 113.11695 3733 ft 219 kts 171°
2026-04-25 04:26 21.87683 113.12402 3610 ft 222 kts 142°
2026-04-25 04:26 21.86553 113.13555 3502 ft 225 kts 135°
2026-04-25 04:26 21.85486 113.14747 3364 ft 225 kts 135°
2026-04-25 04:26 21.84396 113.15965 3232 ft 224 kts 134°
2026-04-25 04:27 21.83575 113.17364 3071 ft 223 kts 106°
2026-04-25 04:27 21.83590 113.19028 3015 ft 227 kts 72°
2026-04-25 04:27 21.84425 113.20450 3001 ft 226 kts 45°
2026-04-25 04:27 21.85571 113.21602 2993 ft 225 kts 44°
2026-04-25 04:28 21.86668 113.22751 2976 ft 217 kts 45°
2026-04-25 04:28 21.87701 113.23851 2979 ft 201 kts 45°
2026-04-25 04:28 21.88674 113.24888 2947 ft 196 kts 45°
2026-04-25 04:28 21.89630 113.25908 2752 ft 193 kts 45°
2026-04-25 04:29 21.90581 113.26920 2503 ft 189 kts 45°
2026-04-25 04:29 21.91506 113.27906 2258 ft 185 kts 44°
2026-04-25 04:29 21.92395 113.28853 2027 ft 173 kts 44°
2026-04-25 04:29 21.93217 113.29727 1805 ft 160 kts 44°
2026-04-25 04:30 21.93732 113.30275 1678 ft 154 kts 44°
2026-04-25 04:30 21.94744 113.31353 1412 ft 155 kts 43°
2026-04-25 04:30 21.95520 113.32178 1195 ft 155 kts 43°
2026-04-25 04:30 21.96249 113.32955 991 ft 141 kts 44°
2026-04-25 04:31 21.96702 113.33438 862 ft 139 kts 42°
2026-04-25 04:31 21.97395 113.34175 679 ft 139 kts 41°
2026-04-25 04:31 21.98078 113.34900 487 ft 135 kts 43°
2026-04-25 04:31 21.98740 113.35607 310 ft 135 kts 41°
2026-04-25 04:32 21.99420 113.36328 123 ft 139 kts 42°
2026-04-25 04:32 22.00086 113.37039 58 ft 123 kts 41°
2026-04-25 04:32 22.00617 113.37604 31 ft 81 kts 44°
2026-04-25 04:32 22.00918 113.37923 28 ft 53 kts 44°
2026-04-25 04:33 22.01155 113.38139 29 ft 33 kts 27°
2026-04-25 04:33 22.01296 113.38190 29 ft 12 kts 13°
2026-04-25 04:33 22.01351 113.38160 29 ft 9 kts 283°
2026-04-25 04:33 22.01336 113.38116 29 ft 6 kts 224°
2026-04-25 04:34 22.01307 113.38085 29 ft 6 kts 224°
2026-04-25 04:34 22.01277 113.38054 29 ft 6 kts 224°
2026-04-25 04:34 22.01247 113.38021 29 ft 7 kts 225°
2026-04-25 04:34 22.01204 113.37976 29 ft 10 kts 224°
2026-04-25 04:35 22.01146 113.37914 30 ft 13 kts 224°
2026-04-25 04:35 22.01073 113.37836 29 ft 16 kts 225°
2026-04-25 04:35 22.01005 113.37763 30 ft 4 kts 236°
2026-04-25 04:35 22.01008 113.37726 30 ft 6 kts 304°
2026-04-25 04:36 22.01030 113.37682 29 ft 8 kts 287°
2026-04-25 04:36 22.01070 113.37634 29 ft 10 kts 315°
2026-04-25 04:36 22.01093 113.37589 29 ft 7 kts 263°
2026-04-25 04:36 22.01074 113.37534 29 ft 8 kts 250°
2026-04-25 04:37 22.01069 113.37519 29 ft 1 kts 250°
2026-04-25 04:37 22.01067 113.37511 29 ft 1 kts 249°
2026-04-25 04:37 22.01063 113.37500 29 ft 2 kts 250°
2026-04-25 04:37 22.01062 113.37498 29 ft 0 kts 250°